Regional Weather Roundup
Issued by NWS

Home | Current Version | Previous Version | Graphics & Text | Print | Product List | Glossary On
Versions: 1 2 3 4 5 6 7 8 9 10 11 12 13 14 15 16 17 18 19 20 21 22 23 24 25 26 27 28 29 30 31 32 33 34 35 36 37 38 39 40 41 42 43 44 45 46 47 48 49 50
000
ASUS45 KCYS 252110
RWRWY

WYOMING REGIONAL WEATHER ROUNDUP
NATIONAL WEATHER SERVICE CHEYENNE WY
300 PM MDT SUN SEP 25 2016

NOTE:  "FAIR" INDICATES FEW OR NO CLOUDS BELOW 12,000 FEET
WITH NO SIGNIFICANT WEATHER AND/OR OBSTRUCTIONS TO VISIBILITY.

WYZ001-252200-
YELLOWSTONE NATIONAL PARK

CITY           SKY/WX    TMP DP  RH WIND       PRES   REMARKS
LK YELLOWSTONE   N/A     54  29  38 W8        30.53R
W YELLOWSTONE  NOT AVBL

$$
WYZ002>013-054>058-071-098>099-252200-
NORTHERN WYOMING

CITY           SKY/WX    TMP DP  RH WIND       PRES   REMARKS
JACKSON        SUNNY     59  30  33 S7G16     30.48F
CODY           FAIR      61  39  44 E14       30.37S
GREYBULL       FAIR      60  38  43 VRB6      30.36F
WORLAND        FAIR      61  40  45 CALM      30.37F
SHERIDAN       FAIR      64  36  35 CALM      30.34F
BUFFALO        FAIR      59  37  44 SE5       30.38F
GILLETTE       FAIR      59  33  37 NW8       30.36F
HULETT         FAIR      59  32  36 NW7       30.36S
NEWCASTLE      FAIR      59  28  31 NW17G23   30.37F

$$
WYZ014>020-022>026-101>103-252200-
CENTRAL WYOMING

CITY           SKY/WX    TMP DP  RH WIND       PRES   REMARKS
BIG PINEY      FAIR      64  27  24 N9        30.48F
PINEDALE       FAIR      61  28  29 NW17      30.48S
DUBOIS         FAIR      59  28  31 NW20G29   30.43F
LANDER         FAIR      60  39  45 VRB3      30.40F
RIVERTON       FAIR      59  40  49 SE6       30.41F
CASPER         FAIR      61  38  42 W7        30.39F
DOUGLAS        FAIR      64  33  31 NW13      30.38F

$$
WYZ021-027>030-104>119-252200-
SOUTHERN WYOMING

CITY           SKY/WX    TMP DP  RH WIND       PRES   REMARKS
EVANSTON       FAIR      59  19  21 N10       30.51F
FORT BRIDGER   FAIR      62  31  31 W7G17     30.53F
ROCK SPRINGS   FAIR      56  33  42 SW14      30.48F
DIXON          FAIR      58  31  36 W9        30.52S
RAWLINS        FAIR      58  34  40 SW15G21   30.47F
SARATOGA       FAIR      57  32  38 W13G21    30.48F
LARAMIE        FAIR      57  28  33 N7        30.44F
CHEYENNE       FAIR      61  29  29 N14G25    30.39F
TORRINGTON     FAIR      66  33  29 NW16G25   30.35F
PINE BLUFFS    FAIR      64  30  27 NW16G28   30.38F

$$



USA.gov is the U.S. government's official web portal to all federal, state and local government web resources and services.